AirNav   Air Wisconsin Up To $57,000 Bonus
 
 713 users online  

58FD Southerly Airport
Dundee, Florida, USA

GOING TO DUNDEE?


FAA INFORMATION EFFECTIVE 11 AUGUST 2022

Location

FAA Identifier: 58FD
Lat/Long: 28-00-51.0000N 081-32-26.0000W
28-00.850000N 081-32.433333W
28.0141667,-81.5405556
(estimated)
Elevation: 78 ft. / 24 m (estimated)
Variation: 03W (1990)
From city: 4 miles E of DUNDEE, FL
Time zone: UTC -4 (UTC -5 during Standard Time)
Zip code: 33853

Airport Operations

Airport use: Private use. Permission required prior to landing
Activation date: 08/1992
Control tower: no
ARTCC: JACKSONVILLE CENTER
FSS: SAINT PETERSBURG FLIGHT SERVICE STATION
Attendance: UNATNDD
Wind indicator: yes
Segmented circle: no

Airport Communications

WX AWOS-3 at X07 (8 nm SW): 124.225 (863-678-1334)
WX ASOS at GIF (12 nm W): 133.675 (863-956-2097)
WX AWOS-3 at BOW (14 nm W): 123.775 (863-533-9004)
WX AWOS-3PT at ISM (17 nm N): PHONE 407-847-0533

Nearby radio navigation aids

VOR radial/distance  VOR name  Freq  Var
LALr085/25.1LAKELAND VORTAC116.0001E
ORLr199/33.5ORLANDO VORTAC112.2000E

Airport Services

Runway Information

Runway 9/27

Dimensions: 2300 x 50 ft. / 701 x 15 m
Surface: turf, in good condition
RUNWAY 9  RUNWAY 27
Traffic pattern: leftleft

Airport Ownership and Management from official FAA records

Ownership: Privately-owned
Owner: FRANK J. DREWNIANY, M.D.
401 BROADSTAIRS DR
HAINES CITY, FL 33844-4338
Phone 305-282-8065
Manager: FRANK J. DREWNIANY, M.D.
401 BROADSTAIRS DR
HAINES CITY, FL 33844-4338
Phone 305-282-8065

Airport Operational Statistics

Aircraft based on the field: 2
Single engine airplanes: 2
    

Additional Remarks

FOR CD CTC ORLANDO APCH AT 407-852-7553.

Instrument Procedures

There are no published instrument procedures at 58FD.

Some nearby airports with instrument procedures:

X07 - Lake Wales Municipal Airport (8 nm SW)
KGIF - Winter Haven Regional Airport (12 nm W)
KBOW - Bartow Executive Airport (14 nm W)
KISM - Kissimmee Gateway Airport (17 nm N)
KAVO - Avon Park Executive Airport (25 nm S)
 
Loc | Ops | Rwys | IFR | FBO | Links
Com | Nav | Svcs | Stats | Notes

Reliance Aviation
AirBoss

 
Area around 58FD (Southerly Airport)
 
Road maps at: MapQuest Bing Google
 
Aerial photo
No photo
 
Sectional chart

 
Airport distance calculator
Flying to Southerly Airport? Find the distance to fly.

From to 58FD

Sunrise and sunset
Times for 14-Aug-2022
 Local
(UTC-4)
 Zulu
(UTC)
Morning civil twilight06:3210:32
Sunrise06:5710:57
Sunset20:0500:05
Evening civil twilight20:3000:30

Current date and time
Zulu (UTC)  14-Aug-2022 04:01:37
Local (UTC-4)  14-Aug-2022 00:01:37
 
METAR
KX07 
8nm SW 
140355Z AUTO 00000KT 10SM BKN042 BKN047 23/23 A3005 RMK A01
KGIF 
12nm W 
140353Z AUTO 00000KT 10SM CLR 24/23 A3004 RMK AO2 SLP170 T02440228
KBOW 
13nm W 
140355Z AUTO 00000KT 10SM FEW038 23/22 A3004 RMK AO2
KISM 
17nm N 
140356Z AUTO 32004KT 10SM CLR 24/23 A3004 RMK AO2 SLP172 T02390228 PNO $
TAF
KISM 
17nm N 
140154Z 1402/1424 VRB05KT P6SM VCSH SCT045 BKN100 FM140400 VRB03KT P6SM SCT035 BKN200 FM141400 36005KT P6SM SCT030 BKN150 FM141700 04008KT P6SM VCTS SCT035CB BKN200 FM142300 06004KT P6SM VCSH SCT040
NOTAMs
Click for the latest NOTAMs
NOTAMs are issued by the DoD/FAA and will open in a separate window not controlled by AirNav.

 

 
 

Would you like to see your business listed on this page?

 If your business provides an interesting product or service to pilots, flight crews, aircraft, or users of the Southerly Airport, you should consider listing it here.  To start the listing process, click on the button below
 
Add a business
 

Other Pages about Southerly Airport

Update a link
 
Copyright © AirNav, LLC. All rights reserved. Privacy Policy  Contact